THOR ABLESTAR DEB, 414

Orbit data source: Space-Track

THOR ABLESTAR DEB, 414 is space debris in LEO originally from a launch on Thu, 29 Jun 1961 UTC launched from the Air Force Eastern Test Range (AFETR). Debris objects in space refer to the collection of defunct objects orbiting the Earth. Examples of debris include non-operational satellites, rocket bodies, and fragments generated from explosions, collisions, or faulty payload assembly.

Loading next visibility...
Identifier
414, 1961-015EP
Orbit
LEO
Country
Flag of USUS
Related business
Manufacturer
Unknown
Mission
Spacecraft
Bus & Motor
Unknown
Mass
Unknown
Launch date (UTC)
1961-06-29 (64 years ago)
Launch vehicle
Unknown
Launch site
Air Force Eastern Test Range (AFETR)
Object type
Payload
Rocket body
Debris
Shape & HBR
Unknown shape, 0.2 m
Radar Cross Section
Medium (>0.1 m² and <1 m²)

Expand to show TLE details & history
Last TLE update: 9 hours ago

TLE from 9 hours ago
0 THOR ABLESTAR DEB
1 00414U 61015EP  25311.29636819  .00000055  00000-0  13062-3 0  9993
2 00414  66.4436 284.2452 0054923 252.3508 215.9850 13.77551601231467
Epoch: 2025-11-07T07:06Z
TLE epoch observation values (Epoch: 2025-11-07T07:06:46.211Z)
Latitude
60.80151°
Longitude
-100.09602°
Altitude
1,014.84 km
Speed
7.334 km/s
True Right ascension
03h 33m 21s
True Declination
60° 39' 36"
Sunlit
Object was in full shadow at epoch
Visualization orbit readout
Latitude
Unknown
Longitude
Unknown
Altitude
Unknown
Speed
Unknown
Apparent Right ascension
Unknown
Apparent Declination
Unknown
Sunlit
N/A
Visualization observer readout
Local Sidereal Time
12:12:25
Azimuth
Unknown
Elevation
Unknown
Doppler factor
Unknown
Orbital elements
Apogee altitude
1,011.392 km
Perigee altitude
930.664 km
Semi-major axis
7,349.165 km
Eccentricity
0.00549
Inclination
66.4436°
RAAN
284.2452°
Arg. of periapsis
252.3508°
True anomaly
215.61724°
Mean anomaly
215.985°
Eccentric anomaly
215.80092°
Mean motion
3.44498 °/min
Orbital period
104.5 mins
BSTAR
0.00013062

Documentation

Showing up to 5 results
|